Tracking 29892 objects as of 21-Nov-2024
HD Live streaming from Space Station
objects crossing your sky now

PEGASUS DEB

Track PEGASUS DEB now!
10-day predictions


NORAD ID: 39321
Int'l Code: 1994-029AFG
Perigee: 606.2 km
Apogee: 1,251.4 km
Inclination: 82.3 °
Period: 103.4 minutes
Semi major axis: 7299 km
RCS: 0.0018 m2 (small)
Launch date: May 19, 1994
Source: United States (US)
Launch site: AIR FORCE WESTERN TEST RANGE (AFWTR)

Note: This is SATELLITE DEBRIS
Your satellite tracking list
Your tracking list is empty




NASA's NSSDC Master Catalog

Two Line Element Set (TLE):
1 39321U 94029AFG 24325.18715801  .00004969  00000-0  17342-2 0  9996
2 39321  82.2868 273.1720 0441938   1.6268 358.6210 13.91986128574311
Source of the keplerian elements: AFSPC